Weather History for KJBR - February, 2013

Change the Weather History Date:

Friday, February 15, 2013

  Actual Average Record
Temperature  
Mean Temperature 43 °F 41 °F  
Max Temperature 50 °F 51 °F 82 °F (1911)
Min Temperature 35 °F 32 °F 8 °F (1905)
Degree Days  
Heating Degree Days 22 24  
Month to date heating degree days 319 377  
Since 1 July heating degree days 2310 2673  
Cooling Degree Days 0 0  
Month to date cooling degree days 0 0  
Year to date cooling degree days 0 0  
Moisture  
Dew Point 27 °F    
Average Humidity 51    
Maximum Humidity 65    
Minimum Humidity 37    
Precipitation  
Precipitation 0.00 in 0.12 in 2.29 in (1989)
Month to date precipitation 1.04 1.94  
Year to date precipitation 6.41 5.37  
Snow  
Snow 0.00 in 0.00 in 6.00 in (1993)
Month to date snowfall 0.0 0.8  
Since 1 July snowfall 7.0 3.6  
Snow Depth 0.00 in    
Sea Level Pressure  
Sea Level Pressure 30.19 in    
Wind  
Wind Speed 7 mph (NW)    
Max Wind Speed 15 mph    
Max Gust Speed 20 mph    
Visibility 10 miles    
Events      
T = Trace of Precipitation, MM = Missing Value Source: NWS Daily Summary

Daily Weather History Graph

Daily Weather History Graph

Search for Another Location

Airport or City:

Trip Planner

Search our weather history database for the weather conditions in past years. The results will help you decide how hot, cold, wet, or windy it might be!

Date:

Astronomy

Feb. 15, 2013 Rise Set
Actual Time 6:49 AM CST 5:44 PM CST
Civil Twilight 6:23 AM CST 6:10 PM CST
Nautical Twilight 5:53 AM CST 6:40 PM CST
Astronomical Twilight 5:23 AM CST 7:10 PM CST
Moon 9:38 AM CST (2/15) 11:31 PM CST (2/15)
Length of Visible Light 11h 47m
Length of Day
10h 55m
Waxing Crescent, 30% of the Moon is Illuminated
Feb 15
Waxing Crescent
Feb 17
First Quarter
Feb 25
Full
Mar 4
Last Quarter
Mar 11
New

Hourly Weather History & Observations

Time (CST) Temp. Windchill Dew Point Humidity Pressure Visibility Wind Dir Wind Speed Gust Speed Precip Events Conditions
12:53 AM 48.0 °F - 32.0 °F 54% 30.09 in 10.0 mi NNW 4.6 mph - N/A   Overcast
1:53 AM 48.0 °F - 32.0 °F 54% 30.10 in 10.0 mi North 4.6 mph - N/A   Overcast
2:53 AM 46.0 °F 44.8 °F 32.0 °F 58% 30.11 in 10.0 mi NW 3.5 mph - N/A   Overcast
3:53 AM 46.0 °F 43.1 °F 32.0 °F 58% 30.13 in 10.0 mi NW 5.8 mph - N/A   Overcast
4:53 AM 46.9 °F - 32.0 °F 56% 30.15 in 10.0 mi NW 6.9 mph - N/A   Overcast
5:53 AM 46.0 °F 42.5 °F 33.1 °F 61% 30.17 in 10.0 mi WNW 6.9 mph - N/A   Overcast
6:53 AM 44.1 °F 41.5 °F 33.1 °F 65% 30.18 in 10.0 mi NW 4.6 mph - N/A   Clear
7:53 AM 45.0 °F 42.6 °F 33.1 °F 63% 30.20 in 10.0 mi NW 4.6 mph - N/A   Clear
8:53 AM 48.0 °F - 28.9 °F 48% 30.21 in 10.0 mi NNW 12.7 mph - N/A   Clear
9:53 AM 48.0 °F - 30.0 °F 50% 30.22 in 10.0 mi NW 12.7 mph - N/A   Clear
10:53 AM 48.9 °F - 30.9 °F 50% 30.23 in 10.0 mi NW 12.7 mph 17.3 mph N/A   Partly Cloudy
11:53 AM 48.9 °F - 28.9 °F 46% 30.22 in 10.0 mi North 8.1 mph - N/A   Mostly Cloudy
12:53 PM 48.0 °F - 26.1 °F 42% 30.20 in 10.0 mi NNW 8.1 mph - N/A   Mostly Cloudy
1:53 PM 48.9 °F - 26.1 °F 41% 30.19 in 10.0 mi NNW 11.5 mph 19.6 mph N/A   Scattered Clouds
2:53 PM 48.9 °F - 26.1 °F 41% 30.19 in 10.0 mi WNW 10.4 mph 16.1 mph N/A   Partly Cloudy
3:53 PM 48.0 °F - 24.1 °F 39% 30.19 in 10.0 mi NW 10.4 mph - N/A   Partly Cloudy
4:53 PM 46.9 °F - 21.9 °F 37% 30.19 in 10.0 mi NNW 10.4 mph - N/A   Partly Cloudy
5:53 PM 44.1 °F 40.1 °F 21.9 °F 42% 30.21 in 10.0 mi NW 6.9 mph - N/A   Clear
6:53 PM 42.1 °F 39.2 °F 23.0 °F 47% 30.22 in 10.0 mi NNW 4.6 mph - N/A   Clear
7:53 PM 41.0 °F 36.4 °F 21.0 °F 45% 30.23 in 10.0 mi NNW 6.9 mph - N/A   Clear
8:53 PM 41.0 °F 36.4 °F 19.0 °F 41% 30.25 in 10.0 mi NNW 6.9 mph - N/A   Overcast
9:53 PM 39.9 °F 35.1 °F 18.0 °F 41% 30.25 in 10.0 mi North 6.9 mph - N/A   Overcast
10:53 PM 37.9 °F 35.5 °F 19.0 °F 47% 30.25 in 10.0 mi North 3.5 mph - N/A   Overcast
11:53 PM 35.1 °F 31.0 °F 19.0 °F 52% 30.25 in 10.0 mi NW 4.6 mph - N/A   Partly Cloudy